This is the latest recevied weather packets stored in our database for station/object WB3EGK. If no packets are shown the sender has not sent any weather packets the latest 10 day(s).
| Time | Temp. | Humidity | Pressure | Rain* | Wind** | Luminosity | Snow |
|---|---|---|---|---|---|---|---|
| 1777504130 | 6.67° C | 1% | 1006.7 hPa | 0 mm | - | 22 W/m² | - |
| 1777503826 | 6.67° C | 1% | 1006.4 hPa | 0 mm | - | 42 W/m² | - |
| 1777503523 | 6.67° C | 1% | 1006.2 hPa | 0 mm | - | 42 W/m² | - |
| 1777503219 | 6.67° C | 1% | 1006.4 hPa | 0 mm | - | 35 W/m² | - |
| 1777502916 | 6.67° C | 1% | 1006.3 hPa | 0 mm | - | 32 W/m² | - |
| 1777502614 | 6.67° C | 1% | 1006.3 hPa | 0 mm | - | 28 W/m² | - |
| 1777502310 | 6.67° C | 1% | 1006.1 hPa | 0 mm | - | 37 W/m² | - |
| 1777502007 | 6.67° C | 1% | 1006.1 hPa | 0 mm | - | 42 W/m² | - |
| 1777501704 | 6.67° C | 1% | 1006.1 hPa | 0 mm | - | 32 W/m² | - |
| 1777501401 | 6.67° C | 1% | 1005.9 hPa | 0 mm | - | 23 W/m² | - |
| 1777501099 | 7.22° C | 1% | 1005.9 hPa | 0 mm | - | 31 W/m² | - |
| 1777500797 | 7.22° C | 1% | 1005.8 hPa | 1.78 mm | - | 37 W/m² | - |
| 1777500494 | 6.67° C | 1% | 1005.8 hPa | 1.78 mm | - | 37 W/m² | - |
| 1777500190 | 7.22° C | 1% | 1005.8 hPa | 0 mm | - | 64 W/m² | - |
| 1777499887 | 7.22° C | 1% | 1005.6 hPa | 0 mm | - | 69 W/m² | - |
| 1777499583 | 7.22° C | 1% | 1005.8 hPa | 0 mm | - | 55 W/m² | - |
| 1777499281 | 7.78° C | 1% | 1005.5 hPa | 0 mm | - | 59 W/m² | - |
| 1777498978 | 7.78° C | 1% | 1005.2 hPa | 0 mm | - | 61 W/m² | - |
| 1777498674 | 7.78° C | 1% | 1005.4 hPa | 0 mm | - | 46 W/m² | - |
| 1777498370 | 7.78° C | 1% | 1005.6 hPa | 0 mm | - | 43 W/m² | - |
| 1777498068 | 7.78° C | 1% | 1005.3 hPa | 0 mm | - | 61 W/m² | - |
| 1777497764 | 8.33° C | 1% | 1005.2 hPa | 0 mm | - | 107 W/m² | - |
| 1777497461 | 8.33° C | 1% | 1005.2 hPa | 0 mm | - | 109 W/m² | - |
| 1777497157 | 8.33° C | 1% | 1004.9 hPa | 0 mm | - | 146 W/m² | - |
| 1777496854 | 8.89° C | 1% | 1004.7 hPa | 0 mm | - | 123 W/m² | - |
* Rain latest hour (hover to see other rain measurements)
** Current wind speed in m/s (hover to see current wind gust speed)